N11059 KORF-KLAS

Flight info

Callsign N11059
Flight time N/A
Altitude 20000
Route KORF NUTIY1 KELLE JEEVY DCT PINEE DCT ZITXI DCT FEEBE DCT JODPU DCT FEBEM DCT EDPIW DCT UDCOS DCT MOGIE DCT ZUPAB DCT TOKIE DCT KINGO DCT HELPS DCT TANZU DCT PGA BLAID20 KLAS
Aircraft DC3/M-V/N

Departure

Time 2026-04-22 22:13
Airport Norfolk International Airport (KORF)

Arrival

Time N/A
Airport Harry Reid International Airport (KLAS)
Time Latitude Longitude Altitude Speed Heading
2026-04-22 22:06 36.88714 -76.20037 31 ft 0 kts 39°
2026-04-22 22:07 36.88717 -76.20034 31 ft 3 kts 34°
2026-04-22 22:07 36.88749 -76.20025 30 ft 5 kts 331°
2026-04-22 22:07 36.88776 -76.20065 30 ft 7 kts 306°
2026-04-22 22:08 36.88804 -76.20103 31 ft 5 kts 309°
2026-04-22 22:08 36.88815 -76.20146 32 ft 5 kts 294°
2026-04-22 22:08 36.88829 -76.20192 33 ft 6 kts 291°
2026-04-22 22:08 36.88844 -76.20247 34 ft 8 kts 289°
2026-04-22 22:09 36.88863 -76.20317 34 ft 9 kts 288°
2026-04-22 22:09 36.88886 -76.20399 35 ft 10 kts 289°
2026-04-22 22:09 36.88911 -76.20481 37 ft 10 kts 297°
2026-04-22 22:09 36.88949 -76.20551 38 ft 10 kts 306°
2026-04-22 22:10 36.88985 -76.20584 38 ft 1 kts 121°
2026-04-22 22:10 36.88976 -76.20573 38 ft 3 kts 142°
2026-04-22 22:10 36.88951 -76.20547 38 ft 6 kts 124°
2026-04-22 22:10 36.88950 -76.20487 38 ft 8 kts 63°
2026-04-22 22:11 36.88975 -76.20457 37 ft 0 kts 37°
2026-04-22 22:12 36.89088 -76.20352 37 ft 42 kts 41°
2026-04-22 22:12 36.89403 -76.20054 43 ft 71 kts 34°
2026-04-22 22:12 36.89864 -76.19614 57 ft 92 kts 36°
2026-04-22 22:13 36.90399 -76.19147 274 ft 97 kts 34°
2026-04-22 22:13 36.90972 -76.18636 417 ft 105 kts 34°
2026-04-22 22:13 36.91601 -76.18120 680 ft 105 kts 27°
2026-04-22 22:13 36.92295 -76.17788 862 ft 112 kts
2026-04-22 22:14 36.93097 -76.17840 1052 ft 118 kts 349°
2026-04-22 22:14 36.93897 -76.17480 1254 ft 139 kts 35°
2026-04-22 22:14 36.94573 -76.16587 1515 ft 139 kts 36°
2026-04-22 22:14 36.95276 -76.15794 1814 ft 134 kts 34°
2026-04-22 22:15 36.95959 -76.15001 2102 ft 135 kts 36°
2026-04-22 22:15 36.96645 -76.14191 2389 ft 136 kts 34°
2026-04-22 22:15 36.97337 -76.13377 2671 ft 138 kts 35°
2026-04-22 22:15 36.98022 -76.12533 2950 ft 139 kts 35°
2026-04-22 22:16 36.98481 -76.11980 3133 ft 138 kts 35°
2026-04-22 22:16 36.99405 -76.10873 3505 ft 138 kts 34°
2026-04-22 22:16 36.99869 -76.10323 3688 ft 139 kts 35°
2026-04-22 22:16 37.00571 -76.09485 3963 ft 140 kts 35°
2026-04-22 22:17 37.01510 -76.08379 4332 ft 140 kts 34°
2026-04-22 22:17 37.02218 -76.07531 4631 ft 141 kts 36°
2026-04-22 22:17 37.02929 -76.06678 4918 ft 142 kts 35°
2026-04-22 22:17 37.03644 -76.05826 5198 ft 142 kts 35°
2026-04-22 22:18 37.04121 -76.05269 5375 ft 142 kts 34°
2026-04-22 22:18 37.04838 -76.04412 5664 ft 143 kts 35°
2026-04-22 22:18 37.05560 -76.03554 5951 ft 144 kts 35°